Location: Christchurch
(43.5330°S, 172.6330°E)
Time: 22:09:32
(UTC+13:00)

SL-08 R/B - Pass Details

Date: 24 January 2019
Orbit: 946 x 994 km, 83.0° (Epoch: 15 October)

Event Time Altitude Azimuth Distance (km) Brightness Sun altitude
Exits shadow 22:42:46 11° 1° (N) 2,587 6.3 -15.1°
Maximum altitude 22:48:38 76° 85° (E) 996 4.4 -15.8°
Drops below altitude 10° 22:54:52 10° 169° (S) 2,729 7.4 -16.5°
Sets 22:57:24 0° 170° (S) 3,689 8.1 -16.8°
